Location: Moscow
(55.7500°N, 37.5830°E)
Time: 23:07:13
(UTC+03:00)

AO-27 - Visible Passes

Search period start: 22 January 2022 00:00
Search period end: 01 February 2022 00:00
Orbit: 784 x 798 km, 98.9° (Epoch: 22 January)

Date Brightness Start Highest point End Pass type
(mag) Time Alt. Az. Time Alt. Az. Time Alt. Az.
22 Jan 10.1 07:12:30 10° NE 07:16:49 25° E 07:21:05 10° SSE visible
22 Jan 7.6 18:37:46 10° SSE 18:42:59 81° ENE 18:48:12 10° NNW visible
22 Jan 10.1 20:19:11 10° SW 20:23:05 21° W 20:27:00 10° NW visible
23 Jan 10.6 06:44:05 10° NE 06:47:14 16° E 06:50:21 10° ESE visible
23 Jan 7.8 18:08:51 10° SE 18:13:52 51° ENE 18:18:54 10° N visible
23 Jan 9.3 19:48:54 10° SSW 19:53:34 33° W 19:58:17 10° NNW visible
24 Jan 8.8 07:53:15 10° NNE 07:58:17 49° E 08:03:18 10° S visible
24 Jan 8.3 17:40:15 10° ESE 17:44:52 34° ENE 17:49:31 10° N visible
24 Jan 8.4 19:19:06 10° S 19:24:11 54° WSW 19:29:18 10° NNW visible
24 Jan 10.8 21:04:03 10° W 21:04:53 10° W 21:05:43 10° WNW visible
25 Jan 9.8 07:24:17 10° NNE 07:28:52 31° E 07:33:26 10° SSE visible
25 Jan 7.7 18:49:43 10° SSE 18:54:55 85° WSW 19:00:10 10° NNW visible
25 Jan 10.3 20:31:46 10° SW 20:35:12 17° W 20:38:37 10° NW visible
26 Jan 10.5 06:55:39 10° NE 06:59:21 19° E 07:03:01 10° SE visible
26 Jan 7.6 18:20:40 10° SE 18:25:46 61° ENE 18:30:55 10° NNW visible
26 Jan 9.6 20:01:12 10° SSW 20:05:38 28° W 20:10:05 10° NW visible
27 Jan 10.9 06:27:54 10° ENE 06:29:41 12° E 06:31:27 10° ESE visible
27 Jan 8.1 17:51:56 10° SE 17:56:44 40° ENE 18:01:33 10° N visible
27 Jan 8.8 19:31:15 10° S 19:36:12 44° W 19:41:11 10° NNW visible
28 Jan 9.5 07:36:07 10° NNE 07:40:55 37° E 07:45:42 10° SSE visible
28 Jan 7.9 19:01:42 10° S 19:06:53 72° WSW 19:12:06 10° NNW visible
28 Jan 10.6 20:44:32 10° WSW 20:47:19 14° W 20:50:07 10° NW visible
29 Jan 10.3 07:07:20 10° NE 07:11:26 23° E 07:15:32 10° SE visible
29 Jan 7.6 18:32:31 10° SSE 18:37:42 73° ENE 18:42:53 10° NNW visible
29 Jan 9.9 20:13:36 10° SW 20:17:42 23° W 20:21:50 10° NW visible
30 Jan 10.7 06:39:04 10° NE 06:41:50 14° E 06:44:35 10° ESE visible
30 Jan 7.9 18:03:40 10° SE 18:08:36 47° ENE 18:13:34 10° N visible
30 Jan 9.1 19:43:26 10° SSW 19:48:14 37° W 19:53:03 10° NNW visible
31 Jan 8.4 17:35:08 10° ESE 17:39:38 31° ENE 17:44:09 10° N visible
31 Jan 8.2 19:13:45 10° S 19:18:52 59° WSW 19:24:01 10° NNW visible
31 Jan 10.8 20:57:39 10° WSW 20:59:28 12° W 21:01:17 10° WNW visible
